When you browse on this site, cookies collect data to enhance your experience and personalize the content and advertising you see.
Visit our Privacy Policy to learn more. By continuing to use the site, you agree to this use of cookies and data.
  • In Latvia
  • List of Countries
  • For 7 days
  • Water Temperature
  • Weather Map
  • Weather Widgets
  • user-avatar
    Login

    Hourly Weather Internacionalnyy

    Today, 22 August, Thursday

    Time Temperature Precipitation Wind Pressure Humidity
    00:00 +28°C° 0 mm 6 mps 750 mmHg 45%
    01:00 +27°C° 0 mm 6 mps 750 mmHg 47%
    02:00 +27°C° 0 mm 5 mps 750 mmHg 50%
    03:00 +26°C° 0 mm 5 mps 750 mmHg 53%
    04:00 +26°C° 0 mm 5 mps 750 mmHg 55%
    05:00 +25°C° 0 mm 5 mps 750 mmHg 58%
    06:00 +25°C° 0 mm 4 mps 750 mmHg 61%
    07:00 +26°C° 0 mm 5 mps 750 mmHg 56%
    08:00 +28°C° 0 mm 5 mps 750 mmHg 52%
    09:00 +30°C° 0 mm 6 mps 750 mmHg 47%
    10:00 +33°C° 0 mm 6 mps 750 mmHg 42%
    11:00 +35°C° 0 mm 5 mps 750 mmHg 37%
    12:00 +36°C° 0 mm 5 mps 750 mmHg 31%
    13:00 +37°C° 0 mm 5 mps 750 mmHg 30%
    14:00 +37°C° 0 mm 5 mps 750 mmHg 28%
    15:00 +39°C° 0 mm 5 mps 750 mmHg 26%
    16:00 +37°C° 0 mm 5 mps 750 mmHg 27%
    17:00 +36°C° 0 mm 5 mps 750 mmHg 28%
    18:00 +36°C° 0 mm 5 mps 749 mmHg 29%
    19:00 +34°C° 0 mm 5 mps 750 mmHg 32%
    20:00 +32°C° 0 mm 5 mps 750 mmHg 35%
    21:00 +29°C° 0 mm 5 mps 750 mmHg 37%
    22:00 +28°C° 0 mm 4 mps 750 mmHg 41%
    23:00 +28°C° 0 mm 4 mps 750 mmHg 44%

    Tomorrow, 23 August, Friday

    Time Temperature Precipitation Wind Pressure Humidity
    00:00 +27°C° 0 mm 4 mps 750 mmHg 47%
    01:00 +27°C° 0 mm 4 mps 750 mmHg 48%
    02:00 +26°C° 0 mm 4 mps 750 mmHg 49%
    03:00 +26°C° 0 mm 5 mps 750 mmHg 50%
    04:00 +26°C° 0 mm 5 mps 750 mmHg 50%
    05:00 +25°C° 0 mm 5 mps 750 mmHg 49%
    06:00 +25°C° 0 mm 5 mps 750 mmHg 49%
    07:00 +27°C° 0 mm 6 mps 750 mmHg 46%
    08:00 +28°C° 0 mm 6 mps 751 mmHg 42%
    09:00 +30°C° 0 mm 6 mps 751 mmHg 39%
    10:00 +32°C° 0 mm 6 mps 751 mmHg 35%
    11:00 +34°C° 0 mm 6 mps 751 mmHg 32%
    12:00 +36°C° 0 mm 6 mps 751 mmHg 29%
    13:00 +36°C° 0 mm 6 mps 751 mmHg 28%
    14:00 +38°C° 0 mm 6 mps 751 mmHg 27%
    15:00 +38°C° 0 mm 6 mps 750 mmHg 27%
    16:00 +38°C° 0 mm 6 mps 750 mmHg 28%
    17:00 +36°C° 0 mm 6 mps 750 mmHg 30%
    18:00 +35°C° 0 mm 6 mps 750 mmHg 31%
    19:00 +34°C° 0 mm 6 mps 750 mmHg 35%
    20:00 +32°C° 0 mm 6 mps 751 mmHg 38%
    21:00 +30°C° 0 mm 6 mps 751 mmHg 42%
    22:00 +29°C° 0 mm 6 mps 751 mmHg 43%
    23:00 +28°C° 0 mm 6 mps 751 mmHg 45%

    Day after tomorrow, 24 August, Saturday

    Time Temperature Precipitation Wind Pressure Humidity
    00:00 +27°C° 0 mm 5 mps 751 mmHg 47%
    01:00 +27°C° 0 mm 6 mps 751 mmHg 48%
    02:00 +26°C° 0 mm 6 mps 750 mmHg 50%
    03:00 +26°C° 0 mm 6 mps 750 mmHg 51%
    04:00 +26°C° 0 mm 6 mps 751 mmHg 54%
    05:00 +24°C° 0 mm 6 mps 751 mmHg 56%
    06:00 +24°C° 0 mm 6 mps 751 mmHg 59%
    07:00 +26°C° 0.1 mm 6 mps 751 mmHg 56%
    08:00 +27°C° 0.1 mm 7 mps 751 mmHg 54%
    09:00 +28°C° 0.1 mm 7 mps 751 mmHg 52%
    10:00 +30°C° 0 mm 7 mps 751 mmHg 46%
    11:00 +32°C° 0 mm 7 mps 751 mmHg 40%
    12:00 +34°C° 0 mm 7 mps 751 mmHg 34%
    13:00 +35°C° 0 mm 7 mps 751 mmHg 33%
    14:00 +35°C° 0 mm 7 mps 751 mmHg 32%
    15:00 +36°C° 0 mm 7 mps 751 mmHg 31%
    16:00 +35°C° 0 mm 6 mps 751 mmHg 31%
    17:00 +35°C° 0 mm 5 mps 751 mmHg 31%
    18:00 +35°C° 0 mm 4 mps 750 mmHg 31%
    19:00 +33°C° 0 mm 4 mps 751 mmHg 34%
    20:00 +32°C° 0 mm 4 mps 751 mmHg 37%
    21:00 +29°C° 0 mm 4 mps 751 mmHg 41%
    22:00 +29°C° 0.1 mm 4 mps 751 mmHg 42%
    23:00 +28°C° 0.1 mm 3 mps 751 mmHg 44%

    25 August, Sunday

    Time Temperature Precipitation Wind Pressure Humidity
    00:00 +28°C° 0.1 mm 3 mps 751 mmHg 45%
    01:00 +27°C° 0.1 mm 3 mps 750 mmHg 47%
    02:00 +27°C° 0.1 mm 4 mps 750 mmHg 49%
    03:00 +26°C° 0.1 mm 4 mps 750 mmHg 52%
    04:00 +26°C° 0 mm 5 mps 750 mmHg 53%
    05:00 +25°C° 0 mm 5 mps 750 mmHg 55%
    06:00 +24°C° 0 mm 6 mps 750 mmHg 56%
    07:00 +26°C° 0 mm 6 mps 750 mmHg 53%
    08:00 +28°C° 0 mm 6 mps 750 mmHg 49%
    09:00 +29°C° 0 mm 6 mps 750 mmHg 45%
    10:00 +30°C° 0 mm 7 mps 750 mmHg 41%
    11:00 +32°C° 0 mm 7 mps 750 mmHg 36%
    12:00 +34°C° 0 mm 7 mps 750 mmHg 32%
    13:00 +33°C° 0 mm 7 mps 750 mmHg 32%
    14:00 +33°C° 0 mm 7 mps 750 mmHg 32%
    15:00 +33°C° 0 mm 7 mps 750 mmHg 31%
    16:00 +32°C° 0 mm 7 mps 750 mmHg 34%
    17:00 +30°C° 0 mm 7 mps 750 mmHg 36%
    18:00 +29°C° 0 mm 7 mps 750 mmHg 38%
    19:00 +28°C° 0 mm 6 mps 750 mmHg 43%
    20:00 +26°C° 0 mm 5 mps 750 mmHg 47%
    21:00 +25°C° 0 mm 5 mps 750 mmHg 51%
    22:00 +25°C° 0 mm 5 mps 750 mmHg 49%
    23:00 +26°C° 0 mm 5 mps 751 mmHg 46%

    26 August, Monday

    Time Temperature Precipitation Wind Pressure Humidity
    00:00 +26°C° 0 mm 5 mps 751 mmHg 44%
    01:00 +26°C° 0 mm 6 mps 751 mmHg 46%
    02:00 +26°C° 0 mm 6 mps 751 mmHg 47%
    03:00 +26°C° 0 mm 6 mps 751 mmHg 49%
    04:00 +24°C° 0 mm 6 mps 751 mmHg 52%
    05:00 +24°C° 0 mm 6 mps 751 mmHg 54%
    06:00 +24°C° 0 mm 6 mps 751 mmHg 57%
    07:00 +24°C° 0 mm 6 mps 752 mmHg 55%
    08:00 +24°C° 0 mm 6 mps 752 mmHg 52%
    09:00 +24°C° 0 mm 6 mps 753 mmHg 50%
    10:00 +27°C° 0 mm 5 mps 753 mmHg 47%
    11:00 +28°C° 0 mm 5 mps 753 mmHg 43%
    12:00 +30°C° 0 mm 5 mps 754 mmHg 39%
    13:00 +30°C° 0 mm 5 mps 754 mmHg 38%
    14:00 +30°C° 0 mm 5 mps 754 mmHg 37%
    15:00 +32°C° 0 mm 5 mps 754 mmHg 36%
    16:00 +30°C° 0 mm 5 mps 754 mmHg 35%
    17:00 +30°C° 0 mm 6 mps 754 mmHg 35%
    18:00 +30°C° 0 mm 6 mps 754 mmHg 34%
    19:00 +28°C° 0 mm 6 mps 754 mmHg 37%
    20:00 +27°C° 0 mm 6 mps 755 mmHg 40%
    21:00 +24°C° 0 mm 6 mps 755 mmHg 43%
    22:00 +23°C° 0 mm 6 mps 755 mmHg 42%
    23:00 +22°C° 0 mm 6 mps 755 mmHg 42%

    27 August, Tuesday

    Time Temperature Precipitation Wind Pressure Humidity
    00:00 +22°C° 0 mm 5 mps 756 mmHg 41%
    01:00 +21°C° 0 mm 5 mps 756 mmHg 44%
    02:00 +20°C° 0 mm 5 mps 756 mmHg 47%
    03:00 +19°C° 0 mm 5 mps 756 mmHg 49%
    04:00 +19°C° 0 mm 5 mps 756 mmHg 52%
    05:00 +17°C° 0 mm 5 mps 756 mmHg 54%
    06:00 +17°C° 0 mm 5 mps 756 mmHg 56%
    07:00 +20°C° 0 mm 6 mps 757 mmHg 53%
    08:00 +21°C° 0 mm 6 mps 757 mmHg 49%
    09:00 +23°C° 0 mm 6 mps 757 mmHg 45%
    10:00 +24°C° 0 mm 6 mps 757 mmHg 41%
    11:00 +27°C° 0 mm 6 mps 757 mmHg 36%
    12:00 +28°C° 0 mm 6 mps 757 mmHg 32%
    13:00 +29°C° 0 mm 6 mps 756 mmHg 31%
    14:00 +29°C° 0 mm 6 mps 756 mmHg 29%
    15:00 +29°C° 0 mm 6 mps 756 mmHg 28%
    16:00 +29°C° 0 mm 6 mps 756 mmHg 28%
    17:00 +28°C° 0 mm 6 mps 756 mmHg 28%
    18:00 +27°C° 0 mm 5 mps 756 mmHg 29%
    19:00 +25°C° 0 mm 5 mps 756 mmHg 29%
    20:00 +23°C° 0 mm 5 mps 756 mmHg 30%
    21:00 +21°C° 0 mm 4 mps 756 mmHg 31%
    22:00 +20°C° 0 mm 4 mps 756 mmHg 31%
    23:00 +19°C° 0 mm 4 mps 756 mmHg 31%
    Show more